www.pogodaiklimat.ru

Погода и климат >> Архив погоды >> Россия >> Магаданская область >> Сусуман


ПОГОДА в Сусумане

  • Прогноз погоды в Сусумане
  • Монитор погоды в Сусумане
  • Климат города

АРХИВ ПОГОДЫ в Сусумане

Время (UTC), дата Ветер
(напр.,м/с)
 
Видим.   Явления Облачность Т
(С)
Тd
(С)
f
(%)
Тe
(С)
Тes
(С)
Комфортность P
(гПа)
Po
(гПа)
Тmin
(С)
Tmax
(С)
R
(мм)
R24
(мм)
S
(см)
09 19.06 В 2 50 км {гроза} 9/3 1000 м
[Sc diur, vesp Ci fib]
+22.3 +5.9 34 +23 +24 комфорт 1003.3 930.8 +25.4
12 19.06 Ю 1 50 км 1/1 1000 м
[Sc]
+12.2 +7.9 75 +12 +12 1005.2 930.2
15 19.06 СВ 1 50 км 4/4 1000 м
[Sc]
+6.3 +4.3 87 +5 +5 1006.3 929.6
18 19.06 ЮВ 1 50 км 4/4 1000 м
[Sc]
+5.3 +4.5 95 +4 +4 1006.0 929.1
21 19.06 З 1 50 км 6/6 1170 м
[Sc]
+13.0 +7.0 67 +13 +15 1003.4 928.7 +4.6
00 20.06 ЮЗ 4 50 км 8/8 1200 м
[Cb cap]
+21.5 +6.8 39 +22 +24 комфорт 999.2 926.8
03 20.06 В 1
{12}
50 км гроза без осадков 9/8 960 м
[Cb cap Ci fib]
+18.5 +8.6 52 +20 +23 998.9 925.9
06 20.06 В 3 50 км гроза без осадков {ливн. осадки} 9/8 900 м
[Cb cap Ci fib]
+17.4 +12.7 74 +17 +18 997.3 924.2
09 20.06 СВ 4 50 км гроза без осадков {ливн. осадки} 9/8 900 м
[Cb cap Ci fib]
+14.6 +10.7 77 +13 +14 998.8 924.9 +23.9 4
12 20.06 С 3 50 км {гроза, ливн. осадки} 10/10 870 м
[Cb cap]
+11.7 +9.6 87 +10 +10 999.0 924.3
15 20.06 З 1 10 км слабый ливневой дождь 10/10 800 м
[Cb cap]
+10.3 +9.8 97 +10 +10 998.3 923.3
18 20.06 С 2 50 км {ливн. осадки} 10/10 600 м
[Cb cap]
+8.9 +8.3 96 +7 +7 998.1 922.8
21 20.06 СВ 3 50 км 10/10 700 м
[Cb cap]
+10.1 +8.8 92 +8 +8 997.7 922.7 +8.8 4
00 21.06 СВ 5 50 км 9/9 720 м
[Cb cap]
+11.3 +6.3 71 +9 +9 998.2 923.4
03 21.06 СВ 6-10
{11}
50 км 10/10 750 м
[Cb cap]
+10.3 +4.5 67 +7 +7 1000.2 925.0
06 21.06 СВ 6-10
{12}
50 км 9/9 930 м
[Cb cap]
+11.7 +4.0 59 +9 +9 1001.3 926.4
09 21.06 СВ 5
{12}
50 км 10/10 1080 м
[Cb cap]
+9.6 +3.1 64 +7 +7 1004.1 928.4 +12.6
12 21.06 СВ 3 50 км 10/10 1000 м
[Cb cap]
+8.2 +3.2 71 +6 +6 1005.9 929.7
15 21.06 СВ 3 50 км 10/10 1050 м
[Cb cap]
+7.5 +2.9 73 +5 +5 1006.7 930.3
18 21.06 СВ 2 50 км 10/10 1110 м
[Cb cap]
+6.5 +2.8 77 +4 +4 1007.5 930.7
21 21.06 СВ 4 50 км 9/4 1000 м
[Cb cap Ac trans]
+9.9 +2.7 61 +7 +8 1007.2 931.4 +6.3
00 22.06 СВ 2 50 км 9/4 1000 м
[Cb cap Ac trans Ci fib]
+12.0 +3.0 54 +11 +15 1006.4 931.1
03 22.06 В 2 50 км 9/6 1170 м
[Cb cap Ac trans Ci fib]
+15.6 +1.8 39 +16 +19 1005.2 930.9
06 22.06 ЮВ 3 50 км 8/4 1000 м
[Sc Ci fib]
+15.1 +3.1 44 +15 +18 1005.0 930.6
09 22.06 ЮВ 3 50 км 8/3 1000 м
[Sc Ac trans Ci fib]
+15.5 +3.3 44 +15 +16 1005.9 931.5 +16.7
12 22.06 Ю 2 50 км 6/3 1000 м
[Sc Ci fib]
+9.7 +4.5 70 +8 +8 1009.4 933.4
15 22.06 ЮЗ 1 50 км 8/3 1000 м
[Sc Ac trans Ci fib]
+3.9 +2.9 93 +2 +2 1012.6 934.7
18 22.06 Ю 1 50 км 8/1 1000 м
[Sc Ac trans Ci fib]
+2.1 +1.6 96 0 +1 1014.4 935.9
21 22.06 З 1 50 км 3/1 1000 м
[Sc Ci fib]
+11.4 +5.5 67 +11 +16 1011.8 936.0 +1.0
00 23.06 ЮЗ 3 50 км 1/1 1000 м
[Cu hum]
+16.1 +5.2 48 +16 +24 1009.7 935.3
03 23.06 З 4 50 км 3/3 1000 м
[Cu hum]
+19.5 +4.1 36 +20 +26 1007.5 934.0
06 23.06 ЮЗ 5 50 км 1/1 1000 м
[Cu hum]
+21.0 +3.1 31 +21 +25 комфорт 1005.8 932.7
09 23.06 Ю 5 50 км 3/0
[Ci fib]
+20.4 +2.1 30 +21 +21 комфорт 1004.7 931.6 +21.4
12 23.06 ЮЗ 3 50 км 4/0
[Ac trans Ci fib]
+13.8 +3.3 49 +13 +13 1006.3 931.5
15 23.06 Ю 3 50 км 9/3 1000 м
[Sc Ac trans Ci fib]
+10.2 +3.5 63 +8 +8 1007.7 931.9
18 23.06 Ю 3 50 км 6/0
[Ci fib]
+8.5 +3.9 73 +6 +6 1007.9 931.6
21 23.06 ЮЗ 3 50 км 6/1 1000 м
[Sc Ci fib]
+8.5 +3.9 73 +6 +9 1007.9 931.6 +6.6
00 24.06 З 4 50 км 9/9 1140 м
[Cb cap]
+17.2 +5.5 46 +17 +18 1004.3 930.5
03 24.06 Ю 2 50 км в посл. час ливневой дождь 10/10 960 м
[Cb cap]
+12.4 +10.6 89 +11 +11 1005.2 930.3
06 24.06 Ю 2 50 км {ливн. осадки} 9/6 1020 м
[Cb cap Ci fib]
+18.9 +11.6 63 +20 +23 1002.3 929.2
09 24.06 Ю 2 50 км 9/8 1050 м
[Cb cap Cs]
+18.9 +11.3 61 +20 +21 1001.3 928.3 +19.4 2
12 24.06 З 1 50 км 10/10 1000 м
[Cb cap]
+15.2 +10.3 73 +16 +16 1002.7 928.6
15 24.06 ЮЗ 2 50 км 10/10 900 м
[Cb cap]
+13.2 +10.8 85 +12 +12 1003.9 929.2
18 24.06 С 6-10
{10}
10 км слабый ливневой дождь 10/10 540 м
[Cb cap]
+9.2 +8.2 93 +5 +5 1006.3 930.4
21 24.06 СВ 5
{14}
10 км слабый ливневой дождь 10/10 600 м
[Cb cap]
+5.0 +3.9 93 0 0 1010.2 932.9 +5.0 4
00 25.06 СВ 5
{10}
10 км 10/10 600 м
[]
+5.0 +3.9 93 0 0 1010.2 934.6 +4.7
03 25.06 В 5-11
{11}
50 км {ливн. осадки} 10/10 1300 м
[Cb cap]
+6.7 +1.9 71 +3 +3 1013.1 935.9
06 25.06 В 4
{11}
50 км {ливн. осадки} 10/10 1230 м
[Cb cap]
+8.3 +2.3 66 +5 +5 1013.2 936.5
09 25.06 В 3 50 км 9/9 1260 м
[Cb cap]
+8.8 +1.2 59 +7 +7 1014.6 937.9 +9.1 0.5
12 25.06 СВ 2 50 км 6/0
[Ac trans Ci fib]
+4.3 +0.7 77 +2 +2 1017.0 938.9
15 25.06 штиль 0 50 км 3/0
[Ci fib]
-1.3 -1.7 97 -3 -3 1019.6 939.8
18 25.06 ЮВ 1 50 км 3/0
[Ci fib]
-2.6 -3.1 96 -5 -5 1020.6 940.3
21 25.06 штиль 0 50 км 4/0
[Ci fib]
+5.5 +0.5 70 +5 +10 1017.6 939.8 -4.0
00 26.06 ЮЗ 2 50 км 6/0
[Ci fib]
+13.1 +0.6 42 +13 +23 1014.1 938.5
03 26.06 Ю 4 50 км 3/0
[Ci fib]
+17.7 -0.4 29 +18 +26 1010.3 936.1
06 26.06 ЮЗ 4 50 км 1/0
[Ci fib]
+20.8 -0.1 25 +21 +26 комфорт 1007.2 934.0

 

Местоположение метеостанции Сусуман (Магаданская область, Россия): широта 62.78 долгота 148.10 высота над уровнем моря 655 м.

В архиве по умолчанию представлена погода в Сусумане за последнюю неделю. Архивные данные за месяц целиком и за предыдущие месяцы, начиная с января 2011 года, Вы можете получить, выбрав интересующий диапазон дат из раскрывающегося списка и нажав кнопку "Ввод!".

Внимание! Время в таблицах - всемирное. Для получения местного времени необходимо прибавить поправку, которая в Сусумане равна 11 ч.

Смотрите также архив погоды в соседних городах и на ближайших метеорологических станциях:

Погода в Ягодной (Магаданская область, Россия) (82 км)
Погода в Озере Джека Лондона (Магаданская область, Россия) (106 км)
Погода в Колымской (Магаданская область, Россия) (107 км)
Погода в Совхозе Эльген (Магаданская область, Россия) (127 км)
Погода в Усть-Бохапче (Магаданская область, Россия) (149 км)
Погода в Делянкире (Якутия, Россия) (171 км)
Погода в Усть-Омчуге (Магаданская область, Россия) (201 км)
Погода в Среднекане (Магаданская область, Россия) (218 км)
Погода в Сеймчане (Магаданская область, Россия) (219 км)
Погода в Оймяконе (Якутия, Россия) (258 км)

Пояснения к столбцам:

Ветер - указаны скорость ветра в м/с - средняя за 10 мин, порывы в срок и между сроками (в фигурных скобках) и направление, откуда дует ветер: С - северный, СВ - северо-восточный, В - восточный, ЮВ - юго-восточный, Ю - южный, ЮЗ - юго-западный, З - западный, СЗ - северо-западный.
Видимость - горизонтальная дальность видимости в метрах или километрах. При видимости от 1 до 10 км при отсутствии осадков обычно наблюдается дымка, при ухудшении видимости до 1 км и менее - туман. В сухую погоду видимость может ухудшаться дымом, пылью или мглою.
Явления - указаны атмосферные явления, наблюдавшиеся в срок или в последний час перед сроком; фигурными скобками обозначены явления, наблюдавшиеся между сроками (за 1-3 часа до срока); квадратными скобками обозначены град или гололедные отложения с указанием их диаметра в мм.
Облачность - указаны через наклонную черту общая и нижняя облачность в баллах и высота нижней границы облаков в метрах; квадратными скобками обозначены формы облаков: Ci - перистые, Cs - перисто-слоистые, Cc - перисто-кучевые, Ac - высококучевые, As - высокослоистые, Sc - слоисто-кучевые, Ns - слоисто-дождевые, Cu - кучевые, Cb - кучево-дождевые. Подробнее классификацию облаков см. в Атласе облаков (PDF).
T - Температура воздуха - температура, измеренная на высоте 2 м над землей.
Td - Температура точки росы - температура, при понижении до которой содержащийся в воздухе водяной пар достигнет насыщения.
f - Относительная влажность воздуха - влажноcть воздуха, измеренная на высоте 2 м над землей.
Te - Эффективная температура - температура, которую ощущает одетый по сезону человек в тени. Характеристика душности погоды. При расчете учитывается влияние влажности воздуха и скорости ветра на теплоощущения человека.
Tes - Эффективная температура на солнце - температура, которую ощущает человек, с поправкой на солнечный нагрев. Характеристика знойности погоды. Зависит от высоты солнца над горизонтом, облачности и скорости ветра. Ночью, в пасмурную погоду, а также при ветре 12 м/с и более поправка равна нулю.
P - Атмосферное давление - приведенное к уровню моря атмосферное давление.
Po - Атмосферное давление - измеренное на уровне метеостанции атмосферное давление.
Tmin - Минимальная температура - минимум температуры воздуха на высоте 2 м над землей.
Tmax - Максимальная температура - максимум температуры воздуха на высоте 2 м над землей.
R - Количество осадков - Количество выпавших осадков за период времени, мм. При наведении курсора мыши на число - период времени, за который выпало указанное количество осадков.
R24 - Количество осадков - Количество выпавших осадков за 24 часа, мм.
S - Снежный покров - Высота снежного покрова, см. При наведении курсора мыши на число - состояние снежного покрова и степень покрытия местности в баллах.